Regional Weather Roundup
Issued by NWS

Home | Current Version | Previous Version | Graphics & Text | Print | Product List | Glossary On
Versions: 1 2 3 4 5 6 7 8 9 10 11 12 13 14 15 16 17 18 19 20 21 22 23 24 25 26 27 28 29 30 31 32 33 34 35 36 37 38 39 40 41 42 43 44 45 46 47 48 49 50
000
ASUS43 KOAX 300602
RWRNE

WEATHER ROUNDUP FOR NEBRASKA
NATIONAL WEATHER SERVICE OMAHA NE
100 AM CDT SAT APR 30 2016

NOTES: SATELLITE DATA IS BEING USED TO AUGMENT CLOUD COVER ABOVE
       12000 FEET.
       "FAIR" INDICATES FEW OR NO CLOUDS BELOW 12,000 FEET WITH NO
       SIGNIFICANT WEATHER AND/OR OBSTRUCTIONS TO VISIBILITY.

  * THESE STATIONS DO NOT REPORT WEATHER SUCH AS RAIN...SNOW OR FOG.

NEZ001>004-019>022-054>056-300700-
NEBRASKA PANHANDLE

CITY           SKY/WX    TMP DP  RH WIND       PRES   REMARKS
SCOTTSBLUFF    LGT SNOW  33  32  96 N5        29.93F FOG     WCI  29
6HR MIN TEMP:  33; 6HR MAX TEMP:  38; 6HR PCP:  0.29;

ALLIANCE       LGT SNOW  32  32 100 N9        29.91F VSB 3/4 WCI  24
6HR MIN TEMP:  32; 6HR MAX TEMP:  37; 6HR PCP:  0.15;

CHADRON        LGT RAIN  37  35  92 NE14      29.98F WCI  28
6HR MIN TEMP:  37; 6HR MAX TEMP:  42; 6HR PCP:  0.05;

SIDNEY         LGT SNOW  32  31  96 N9        29.90S VSB 3/4 WCI  24
6HR MIN TEMP:  32; 6HR MAX TEMP:  33; 6HR PCP:  0.36;

$$

NEZ057>060-069>072-079>082-300700-
SOUTHWEST NEBRASKA

CITY           SKY/WX    TMP DP  RH WIND       PRES   REMARKS
NORTH PLATTE   LGT SNOW  33  32  96 NE7       29.88F FOG     WCI  27
6HR MIN TEMP:  33; 6HR MAX TEMP:  41; 6HR PCP:  0.69;

IMPERIAL       LGT SNOW  33  32  96 N8        29.86S FOG     WCI  26
6HR MIN TEMP:  33; 6HR MAX TEMP:  35; 6HR PCP:  0.53;

MCCOOK         CLOUDY    38  35  89 NE13      29.83F WCI  30
6HR MIN TEMP:  38; 6HR MAX TEMP:  42; 6HR PCP:  0.59;

$$

NEZ005>010-023>029-035>040-094-300700-
NORTH CENTRAL NEBRASKA

CITY           SKY/WX    TMP DP  RH WIND       PRES   REMARKS
VALENTINE      CLOUDY    39  37  92 NE13      29.97F WCI  31
6HR MIN TEMP:  39; 6HR MAX TEMP:  41;

BROKEN BOW     RAIN      40  38  93 NE15G21   29.85S FOG     WCI  32
6HR MIN TEMP:  40; 6HR MAX TEMP:  41; 6HR PCP:  0.11;

ORD            LGT RAIN  41  39  93 NE18G30   29.87F
6HR MIN TEMP:  41; 6HR MAX TEMP:  43; 6HR PCP:  0.04;

$$

NEZ041-046>049-061>064-073>077-083>087-300700-
SOUTH CENTRAL NEBRASKA

CITY           SKY/WX    TMP DP  RH WIND       PRES   REMARKS
GRAND ISLAND   RAIN      42  40  92 NE21      29.82F FOG
6HR MIN TEMP:  42; 6HR MAX TEMP:  44; 6HR PCP:  0.17;

AURORA         RAIN      43  42  97 NE22G29   29.82F
HASTINGS       HVY RAIN  42  41  96 E20G30    29.80F FOG
6HR MIN TEMP:  42; 6HR MAX TEMP:  43; 6HR PCP:  0.49;

KEARNEY *      CLOUDY    43  39  87 NE16      29.84F
YORK           LGT RAIN  43  41  93 NE20G28   29.82F
$$

NEZ011>018-030>034-042>045-300700-
NORTHEAST NEBRASKA

CITY           SKY/WX    TMP DP  RH WIND       PRES   REMARKS
NORFOLK        CLOUDY    43  38  82 NE15G22   29.92F
6HR MIN TEMP:  42; 6HR MAX TEMP:  44; 6HR PCP: TRACE;

ALBION         LGT RAIN  42  38  89 NE17G23   29.89F
BLAIR          LGT RAIN  45  43  91 NE17G23   29.89F
COLUMBUS *     CLOUDY    43  36  75 NE20G28   29.88F
FREMONT        LGT RAIN  44  42  93 NE13G22   29.89F
TEKAMAH        LGT RAIN  46  42  86 NE17      29.93F
6HR MIN TEMP:  46; 6HR MAX TEMP:  48; 6HR PCP: TRACE;

$$

NEZ050>053-065>068-078-088>093-300700-
SOUTHEAST NEBRASKA

CITY           SKY/WX    TMP DP  RH WIND       PRES   REMARKS
LINCOLN        LGT RAIN  46  43  89 NE21      29.83F FOG
6HR MIN TEMP:  46; 6HR MAX TEMP:  48; 6HR PCP:  0.02;

OMAHA EPPLEY   LGT RAIN  47  43  86 NE14      29.90F
6HR MIN TEMP:  47; 6HR MAX TEMP:  50; 6HR PCP:  0.02;

FALLS CITY     LGT RAIN  49  46  90 E16G28    29.76F
6HR MIN TEMP:  49; 6HR MAX TEMP:  51; 6HR PCP: TRACE;

$$

NEZ044-045-051>053-067-300700-
OMAHA AREA

CITY           SKY/WX    TMP DP  RH WIND       PRES   REMARKS
OMAHA EPPLEY   LGT RAIN  47  43  86 NE14      29.90F
6HR MIN TEMP:  47; 6HR MAX TEMP:  50; 6HR PCP:  0.02;

BLAIR          LGT RAIN  45  43  91 NE17G23   29.89F
FREMONT        LGT RAIN  44  42  93 NE13G22   29.89F
OFFUTT AFB     CLOUDY    47  44  87 NE18G26   29.87F
$$




USA.gov is the U.S. government's official web portal to all federal, state and local government web resources and services.